Regional Weather Roundup
Issued by NWS

Home | Current Version | Previous Version | Text Only | Print | Product List | Glossary Off
Versions: 1 2 3 4 5 6 7 8 9 10 11 12 13 14 15 16 17 18 19 20 21 22 23 24 25 26 27 28 29 30 31 32 33 34 35 36 37 38 39 40 41 42 43 44 45 46 47 48 49 50

000
ASUS45 KCYS 181910
RWRWY

WYOMING REGIONAL WEATHER ROUNDUP
NATIONAL WEATHER SERVICE CHEYENNE WY
1200 PM MST WED JAN 18 2017

NOTE:  "FAIR" INDICATES FEW OR NO CLOUDS BELOW 12,000 FEET
WITH NO SIGNIFICANT WEATHER AND/OR OBSTRUCTIONS TO VISIBILITY.

WYZ001-182000-
YELLOWSTONE NATIONAL PARK

CITY           SKY/WX    TMP DP  RH WIND       PRES   REMARKS
LK YELLOWSTONE   N/A     10   5  80 CALM      29.99F
W YELLOWSTONE  NOT AVBL

$$
WYZ002>013-054>058-071-098>099-182000-
NORTHERN WYOMING

CITY           SKY/WX    TMP DP  RH WIND       PRES   REMARKS
JACKSON        SUNNY      0   0 100 SE5       30.04F WCI -10
CODY           FAIR      22  13  68 N3        29.77F
GREYBULL       FAIR      11   2  67 CALM      29.84F
WORLAND        FAIR      26  17  68 CALM      29.84F
SHERIDAN       FAIR      28  16  60 MISG      29.70F
BUFFALO        FAIR      48  22  35 CALM      29.71F
GILLETTE       FAIR      46  23  40 SW14      29.70F
HULETT         FAIR      45  21  39 SW13      29.72F
NEWCASTLE      FAIR      39  25  56 CALM      29.78F

$$
WYZ014>020-022>026-101>103-182000-
CENTRAL WYOMING

CITY           SKY/WX    TMP DP  RH WIND       PRES   REMARKS
BIG PINEY      FAIR      -3  -6  87 CALM      30.02F
PINEDALE       FAIR       3  -4  72 SE9       30.02F WCI -11
DUBOIS         NOT AVBL
LANDER         FAIR      18   8  65 E5        29.91F WCI  11
RIVERTON       FAIR      12   6  77 CALM      29.93F
CASPER         FAIR     N/A N/A N/A MISG      29.85F
DOUGLAS        FAIR      54  18  24 NW16      29.78F

$$
WYZ021-027>030-104>119-182000-
SOUTHERN WYOMING

CITY           SKY/WX    TMP DP  RH WIND       PRES   REMARKS
EVANSTON       FAIR      22   9  57 S3        30.02F
ROCK SPRINGS   FAIR       5  -3  69 CALM      30.02F
RAWLINS        FAIR      30  19  63 NE5       30.00F WCI  25
LARAMIE        FAIR      22  14  71 N3        29.91F
CHEYENNE       FAIR      53  12  19 W10       29.83F
TORRINGTON     FAIR      50  15  24 VRB3      29.78F

$$



USA.gov is the U.S. government's official web portal to all federal, state and local government web resources and services.